Location: Bennemühlen
(52.5740°N, 9.7135°E)
Time: 01:10:25
(UTC+00:00)

CENTAUR R/B - Pass Details

Date: 19 May 2025
Orbit: 645 x 1537 km, 63.4° (Epoch: 15 June)

Event Time Altitude Azimuth Distance (km) Brightness Sun altitude
Rises 21:21:50 0° 305° (NW) 3,905 6.9 -13.2°
Reaches altitude 10° 21:24:25 10° 311° (NW) 3,070 6.3 -13.4°
Maximum altitude 21:31:47 51° 27° (NNE) 1,630 3.9 -13.9°
Drops below altitude 10° 21:40:31 10° 102° (ESE) 3,621 5.1 -14.4°
Sets 21:43:49 0° 107° (ESE) 4,655 5.7 -14.6°
